Chapel Hill, NC

10:50 AM EDT on August 20, 2017 (GMT -0400)
Williams

Weather History for KIGX - March, 2013

Change the Weather History Date:

Monday, March 25, 2013

  Actual Average Record
Temperature  
Mean Temperature 40 °F -  
Max Temperature 48 °F 63 °F 82 °F (1954)
Min Temperature 35 °F 37 °F 21 °F (1956)
Degree Days  
Heating Degree Days 24    
Moisture  
Dew Point 30 °F    
Average Humidity 73    
Maximum Humidity 93    
Minimum Humidity 35    
Precipitation  
Precipitation 0.00 in - - ()
Sea Level Pressure  
Sea Level Pressure 29.61 in    
Wind  
Wind Speed 4 mph (WNW)    
Max Wind Speed 17 mph    
Max Gust Speed 31 mph    
Visibility 9 miles    
Events      
Averages and records for this station are not official NWS values.
T = Trace of Precipitation, MM = Missing Value Source: NWS Daily Summary

Daily Weather History Graph

Daily Weather History Graph

Search for Another Location

Airport or City:

Trip Planner

Search our weather history database for the weather conditions in past years. The results will help you decide how hot, cold, wet, or windy it might be!

Date:

Astronomy

Mar. 25, 2013 Rise Set
Actual Time 7:12 AM EDT 7:32 PM EDT
Civil Twilight 6:46 AM EDT 7:58 PM EDT
Nautical Twilight 6:16 AM EDT 8:28 PM EDT
Astronomical Twilight 5:46 AM EDT 8:58 PM EDT
Moon 6:03 PM EDT (3/25) 5:52 AM EDT (3/25)
Length of Visible Light 13h 11m
Length of Day
12h 20m
Waxing Gibbous, 96% of the Moon is Illuminated
Mar 25
Waxing Gibbous
Mar 27
Full
Apr 3
Last Quarter
Apr 10
New
Apr 18
First Quarter

Hourly Weather History & Observations

Time (EDT) Temp. Windchill Dew Point Humidity Pressure Visibility Wind Dir Wind Speed Gust Speed Precip Events Conditions
12:18 AM 36.0 °F - 34.0 °F 93% 29.60 in 9.0 mi Calm Calm - N/A   Overcast
12:56 AM 36.0 °F - 33.1 °F 89% 29.60 in 10.0 mi Calm Calm - N/A   Overcast
1:08 AM 36.0 °F - 33.1 °F 89% 29.60 in 10.0 mi Calm Calm - N/A   Overcast
1:49 AM 36.0 °F 33.3 °F 33.1 °F 89% 29.57 in 8.0 mi NE 3.5 mph - N/A   Overcast
1:56 AM 36.0 °F 33.3 °F 33.1 °F 89% 29.57 in 7.0 mi ENE 3.5 mph - N/A   Overcast
2:56 AM 36.0 °F - 33.1 °F 89% 29.57 in 10.0 mi Calm Calm - N/A   Overcast
3:56 AM 36.0 °F 33.3 °F 34.0 °F 93% 29.57 in 4.0 mi NW 3.5 mph - 0.00 in   Overcast
4:16 AM 36.0 °F - 34.0 °F 93% 29.57 in 2.5 mi Calm Calm - N/A   Overcast
4:38 AM 36.0 °F - 34.0 °F 93% 29.56 in 2.5 mi Calm Calm - N/A   Overcast
4:56 AM 36.0 °F 33.3 °F 34.0 °F 93% 29.57 in 2.0 mi WNW 3.5 mph - N/A   Overcast
5:24 AM 36.0 °F 31.1 °F 34.0 °F 93% 29.57 in 2.5 mi WNW 5.8 mph - N/A   Overcast
5:53 AM 35.6 °F 32.8 °F 33.8 °F 93% 29.57 in 4.0 mi NNW 3.5 mph - N/A   Overcast
5:56 AM 36.0 °F 33.3 °F 33.1 °F 89% 29.57 in 4.0 mi North 3.5 mph - N/A   Overcast
6:28 AM 35.1 °F - 33.1 °F 92% 29.56 in 10.0 mi Calm Calm - N/A   Overcast
6:40 AM 35.1 °F 32.2 °F 33.1 °F 92% 29.56 in 10.0 mi NW 3.5 mph - N/A   Overcast
6:56 AM 35.1 °F - 33.1 °F 92% 29.57 in 10.0 mi Calm Calm - N/A   Overcast
7:07 AM 35.1 °F - 33.1 °F 92% 29.57 in 10.0 mi Calm Calm - N/A   Overcast
7:56 AM 35.1 °F - 33.1 °F 92% 29.57 in 10.0 mi Calm Calm - N/A   Overcast
8:48 AM 36.0 °F 31.1 °F 33.1 °F 89% 29.59 in 10.0 mi West 5.8 mph - N/A   Overcast
8:56 AM 36.0 °F 32.1 °F 33.1 °F 89% 29.60 in 10.0 mi West 4.6 mph - N/A   Overcast
9:40 AM 37.0 °F 34.5 °F 34.0 °F 89% 29.59 in 10.0 mi Variable 3.5 mph - N/A   Overcast
9:56 AM 37.0 °F 32.4 °F 34.0 °F 89% 29.60 in 10.0 mi WSW 5.8 mph - N/A   Overcast
10:43 AM 41.0 °F 35.8 °F 34.0 °F 76% 29.59 in 10.0 mi West 8.1 mph - N/A   Overcast
10:56 AM 42.1 °F 36.6 °F 34.0 °F 73% 29.59 in 10.0 mi WSW 9.2 mph - N/A   Overcast
11:20 AM 43.0 °F 37.2 °F 33.1 °F 68% 29.59 in 10.0 mi West 10.4 mph 19.6 mph N/A   Mostly Cloudy
11:56 AM 45.0 °F 40.6 °F 30.0 °F 56% 29.59 in 10.0 mi WSW 8.1 mph 23.0 mph N/A   Mostly Cloudy
12:56 PM 46.0 °F 39.3 °F 23.0 °F 40% 29.59 in 10.0 mi WNW 16.1 mph 27.6 mph N/A   Mostly Cloudy
1:56 PM 46.0 °F 39.6 °F 24.1 °F 42% 29.61 in 10.0 mi West 15.0 mph 29.9 mph N/A   Overcast
2:56 PM 45.0 °F 39.3 °F 24.1 °F 44% 29.61 in 10.0 mi WNW 11.5 mph 29.9 mph N/A   Overcast
3:56 PM 46.0 °F 39.0 °F 19.9 °F 35% 29.61 in 10.0 mi West 17.3 mph 31.1 mph N/A   Mostly Cloudy
4:56 PM 45.0 °F 38.2 °F 21.0 °F 39% 29.63 in 10.0 mi West 15.0 mph 25.3 mph N/A   Overcast
5:56 PM 46.0 °F 40.2 °F 21.9 °F 39% 29.66 in 10.0 mi West 12.7 mph 25.3 mph N/A   Overcast
6:56 PM 44.1 °F 39.0 °F 21.0 °F 40% 29.69 in 10.0 mi West 9.2 mph 21.9 mph N/A   Mostly Cloudy
7:56 PM 43.0 °F 39.5 °F 21.0 °F 42% 29.73 in 10.0 mi Variable 5.8 mph - N/A   Mostly Cloudy
8:56 PM 43.0 °F 38.2 °F 21.0 °F 42% 29.75 in 10.0 mi West 8.1 mph - N/A   Mostly Cloudy
9:56 PM 41.0 °F 36.4 °F 21.0 °F 45% 29.79 in 10.0 mi Variable 6.9 mph - N/A   Mostly Cloudy
10:56 PM 39.9 °F 33.4 °F 19.9 °F 45% 29.81 in 10.0 mi WNW 10.4 mph 19.6 mph N/A   Partly Cloudy
11:56 PM 37.9 °F 35.5 °F 21.0 °F 51% 29.82 in 10.0 mi WSW 3.5 mph - N/A   Mostly Cloudy